Regional Weather Roundup
Issued by NWS Spokane, WA

Home | Current Version | Previous Version | Text Only | Print | Product List | Glossary On
Versions: 1 2 3 4 5 6 7 8 9 10 11 12 13 14 15 16 17 18 19 20 21 22 23 24 25 26 27 28 29 30 31 32 33 34 35 36 37 38 39 40 41 42 43 44 45 46 47 48 49 50
000
NZUS01 KOTX 050210
RWROTX
EASTERN WASHINGTON/NORTHERN IDAHO ROUNDUP
NATIONAL WEATHER SERVICE, SPOKANE WA
700 PM PDT TUE AUG 04 2015

Note: "fair" indicated few or no clouds below 12,000 feet with no
significant weather and/or obstructions to visibility.

...NORTHEAST WASHINGTON AND NORTHERN IDAHO PANHANDLE...

CITY           SKY/WX    TMP DP  RH WIND       PRES   REMARKS
SPOKANE INTL   FAIR      84  38  19 SW14      29.84S
SPOKANE DOWNTO FAIR      87  39  18 SW16G22   29.81F
COEUR D ALENE  FAIR      82  41  23 S13       29.82F
DEER PARK      FAIR      84  42  22 W14       29.82F
SANDPOINT      FAIR      81  41  24 S7        29.81F
BONNERS FERRY  FAIR      81  41  24 SW5       29.82S

...SOUTHEAST WASHINGTON AND SOUTHERN IDAHO PANHANDLE...

CITY           SKY/WX    TMP DP  RH WIND       PRES   REMARKS
WALLA WALLA    FAIR      90  37  15 SW9       29.80F
PULLMAN/MOSCOW FAIR      82  37  20 W9        29.89F
LEWISTON       FAIR      90  38  16 NW14      29.79S
LOWELL           N/A     76  59  55 VRB7      29.83R

...COLUMBIA BASIN...

CITY           SKY/WX    TMP DP  RH WIND       PRES   REMARKS
EPHRATA        FAIR      88  33  14 W13       29.77S
MOSES LAKE     FAIR      89  35  14 SW14      29.78S
TRI CITIES     FAIR      93  41  16 W8        29.73F
HERMISTON      FAIR      88  39  17 SW10G17   29.77S HAZE
PENDLETON      FAIR      87  37  17 W14       29.82F

...EAST SLOPES CASCADES...

CITY           SKY/WX    TMP DP  RH WIND       PRES   REMARKS
THE DALLES     FAIR      84  36  18 NW18      29.83F
YAKIMA         FAIR      88  36  15 W13       29.80S
ELLENSBURG     FAIR      77  36  22 NW28G36   29.87R
WENATCHEE      FAIR      86  32  14 NW22G29   29.80R
OMAK           FAIR      85  33  15 SW5       29.74F

...SOUTHERN BRITISH COLUMBIA...

CITY           SKY/WX    TMP DP  RH WIND       PRES   REMARKS
PENTICTON      LGT RAIN  73  59  60 W5        29.77R
CASTLEGAR      PTSUNNY   82  46  28 S3        29.76S
CRANBROOK      MOSUNNY   72  46  40 N10       29.85R

...WESTERN MONTANA...

CITY           SKY/WX    TMP DP  RH WIND       PRES   REMARKS
MISSOULA       FAIR      82  42  24 NW10      29.89R

...NEIGHBORING CITIES...

CITY           SKY/WX    TMP DP  RH WIND       PRES   REMARKS
SEATTLE        FAIR      76  51  41 SW8       29.96F
CALGARY        TSTM      55  52  88 N5        29.98S



USA.gov is the U.S. government's official web portal to all federal, state and local government web resources and services.